Weather in Volozhin

Belarus     54°05′25″N   26°31′36″E
temp.,
°C
wind,
m/s
gust,
m/s
humid.,
%
clouds,
%
prec.,
mm/h
press.,
hPa
HPBL,
m
24 july, sat
sat2400:00+16w238385 0.0 101554
03:00+16wnw238671 0.0 101573
06:00+14wnw229736 0.0 101544
09:00+19nw247841 0.0 1015557
12:00+20nnw237951 1.3 1016777
15:00+23nw23598 2.6 10151335
18:00+23nnw335515 0.3 10161269
21:00+18nw11740 0.3 101611
25 july, sun
sun2500:00+15nne11820 0.0 101711
03:00+14se01831 0.0 101811
06:00+14se118433 0.0 101811
09:00+20ese11660 0.0 1018305
12:00+25sse12521 0.0 10191295
15:00+24wsw236198 0.2 1018648
18:00+25ese32582 0.3 1018704
21:00+20se11771 0.4 101911
26 july, mon
mon2600:00+18ese237362 0.0 102035
03:00+19se247482 0.0 102085
06:00+16se24833 0.0 102064
09:00+22se46652 0.0 1020375
12:00+26se46484 0.0 10201512
15:00+26se464696 0.0 10191523
18:00+27se464814 0.0 10191379
21:00+21ese41073100 0.0 1018203
27 july, tue
tue2700:00+21se51260100 0.0 1019322
03:00+19se4126793 0.0 1019330
06:00+17se3108484 0.1 1019243
09:00+22se612665 0.1 1018549
12:00+27sse7114799 0.0 10171397
15:00+29sse694371 0.0 10162044
18:00+28sse484888 0.0 10151352
21:00+24se3963100 0.1 1014245
28 july, wed
wed2800:00+19ne2297100 6.9 101560
03:00+19ese259846 11.1 1013200
06:00+18se249986 0.1 1012139
09:00+20s249353 0.3 1011397
12:00+23s347669 0.3 1010899
15:00+26wsw346291 0.4 10091263
18:00+25nw2263100 0.0 10071007
21:00+21se1184100 0.0 100711